Terug naar catalogus

GALASSIA-2

LostCommunicatieVLEO
NORAD 57486·PAYLOAD·🇸🇬 Singapore

Gelanceerd Jul 30, 2023 vanaf Satish Dhawan Space Centre

Loading…

Volgende Passages (komende 24 uur)

TLE

VerouderdSource: Space-Track

Epoch: Dec 16, 2023, 20:30 UTC

1 57486U 23109F   23350.85418427  .00009606  00000-0  48048-3 0  9995
2 57486   5.0011 301.3018 0001321 115.2367 244.7878 15.12808902 21185

Volg GALASSIA-2 in realtime met AllMySat

Download on the App Store